www.pogodaiklimat.ru

Погода и климат >> Архив погоды >> Македония >> Тетово


ПОГОДА в Тетово

  • Прогноз погоды в Тетово
  • Монитор погоды в Тетово

АРХИВ ПОГОДЫ в Тетово

Время (UTC), дата Ветер
(напр.,м/с)
 
Видим.   Явления Облачность Т
(С)
Тd
(С)
f
(%)
Тe
(С)
Тes
(С)
Комфортность P
(гПа)
Po
(гПа)
Тmin
(С)
Tmax
(С)
R
(мм)
R24
(мм)
S
(см)
03 17.08 штиль 0 20 км ясно +11.6 +10.5 93 +11 +11 1017.4 964.6
06 17.08 штиль 0 20 км ясно +14.0 +11.5 85 +14 +19 1017.6 965.2 +10.6
09 17.08 СВ 1 20 км 3/3 1000 м
[Cu med, cong]
+23.8 +11.4 46 +25 +37 комфорт 1016.3 965.5
12 17.08 СВ 1 20 км 5/5 1000 м
[Cu Sc]
+26.6 +10.0 35 +27 +36 жарко 1014.6 964.4
15 17.08 СВ 1 20 км 5/4 1000 м
[Cu Sc Ci fib]
+27.4 +10.3 34 +28 +31 жарко 1013.6 963.4
18 17.08 штиль 0 20 км 3/1 1000 м
[Sc Ac lent]
+23.0 +9.4 42 +25 +25 комфорт 1014.7 963.8 +28.0
21 17.08 СВ 2 20 км 1/0
[Ac lent]
+19.4 +8.5 49 +21 +21 комфорт 1016.7 965.0
00 18.08 штиль 0 20 км ясно +15.0 +11.2 78 +15 +15 1017.6 965.2
03 18.08 штиль 0 20 км ясно +12.0 +10.9 93 +11 +11 1018.2 965.2
06 18.08 штиль 0 20 км 1/0
[Ci fib]
+16.4 +14.5 89 +16 +21 1018.1 965.8 +11.6
09 18.08 С 2 20 км 1/1 1000 м
[Cu hum]
+25.2 +11.1 41 +26 +39 жарко 1016.8 966.3
12 18.08 ЮВ 2 20 км 4/1 1000 м
[Cu hum Ci fib]
+29.2 +14.5 41 +31 +44 жарко 1014.2 964.5
15 18.08 штиль 0 20 км 1/1 1000 м
[Cu hum]
+30.7 +12.4 33 +32 +37 жарко 1013.4 964.0
18 18.08 СЗ 4 20 км ясно +25.0 +9.4 37 +26 +26 жарко 1014.1 963.9 +31.1
21 18.08 штиль 0 20 км ясно +19.8 +10.3 54 +21 +21 комфорт 1017.2 965.8
00 19.08 штиль 0 20 км ясно +15.4 +10.6 73 +15 +15 1018.3 966.0
03 19.08 штиль 0 20 км ясно +13.3 +10.5 83 +13 +13 1018.7 966.1
06 19.08 штиль 0 20 км 1/0
[Ci fib]
+17.0 +12.7 76 +17 +22 1018.3 966.4 +12.4
09 19.08 В 1 20 км 1/0
[Ci fib]
+26.8 +12.0 40 +28 +45 жарко 1015.5 965.4
12 19.08 В 2 20 км 1/0
[Ci fib]
+31.3 +11.1 29 +31 +46 жарко 1014.4 964.9
15 19.08 В 3 20 км 1/0
[Ci fib]
+32.6 +10.9 26 +32 +36 жарко 1012.4 963.4
18 19.08 штиль 0 20 км 1/0
[Ci fib]
+27.0 +12.7 41 +29 +29 жарко 1013.9 963.9 +32.8
21 19.08 штиль 0 20 км ясно +21.6 +12.3 55 +24 +24 комфорт 1015.7 964.8
00 20.08 штиль 0 20 км ясно +17.4 +13.1 76 +17 +17 1016.2 966.2
03 20.08 штиль 0 20 км ясно +15.1 +13.0 87 +15 +15 1018.5 966.2
06 20.08 штиль 0 20 км ясно +19.0 +14.4 75 +20 +25 1019.4 967.8 +14.2
09 20.08 СЗ 1 20 км 1/1 1000 м
[Cu hum]
+28.0 +13.6 41 +30 +45 жарко 1017.1 967.1
12 20.08 С 1 20 км 1/1 1000 м
[Cu hum]
+32.0 +13.0 31 +33 +48 жарко 1014.8 965.5
15 20.08 С 1 20 км 1/1 1000 м
[Cu hum]
+33.4 +13.5 30 +34 +39 очень
жарко
1014.0 964.9
18 20.08 СЗ 2 20 км ясно +28.2 +11.8 36 +29 +29 жарко 1014.8 964.9 +33.8
21 20.08 штиль 0 20 км ясно +23.2 +11.7 48 +26 +26 жарко 1016.9 966.1
00 21.08 штиль 0 20 км ясно +18.6 +13.1 70 +19 +19 1018.5 966.9
03 21.08 штиль 0 20 км ясно +16.6 +13.6 82 +16 +16 1018.4 966.5
06 21.08 штиль 0 20 км ясно +19.2 +16.1 82 +21 +25 комфорт 1018.6 967.2 +15.2
09 21.08 штиль 0 20 км 1/1 1000 м
[Cu hum]
+28.0 +15.5 47 +31 +48 душно 1017.8 967.1
12 21.08 СВ 1 20 км 3/3 1000 м
[Cu med, cong]
+32.2 +15.7 37 +35 +47 очень
душно
1015.0 965.5
15 21.08 СВ 2 20 км 3/3 1000 м
[Cu med, cong]
+33.2 +12.5 28 +33 +36 жарко 1014.1 964.8
18 21.08 СВ 1 20 км 1/0
[Ci fib]
+27.8 +12.1 38 +29 +29 жарко 1015.1 965.0 +33.4
21 21.08 штиль 0 20 км ясно +22.4 +11.1 49 +25 +25 комфорт 1017.8 966.6
00 22.08 штиль 0 20 км ясно +17.6 +12.7 73 +18 +18 1019.1 967.2
03 22.08 штиль 0 20 км ясно +16.0 +12.7 81 +16 +16 1019.7 967.4
06 22.08 штиль 0 20 км ясно +19.2 +16.4 84 +21 +25 комфорт 1012.1 969.1 +14.4
09 22.08 СВ 2 20 км 3/3 1000 м
[Cu hum]
+28.8 +13.6 39 +30 +40 жарко 1019.9 969.9
12 22.08 СВ 1 20 км 3/3 1000 м
[Cu hum]
+32.4 +16.4 38 +35 +47 душно 1017.4 968.2
15 22.08 СВ 4 20 км 4/4 1000 м
[Cu hum]
+33.4 +15.8 35 +36 +37 очень
душно
1016.2 967.0
18 22.08 СЗ 4 20 км 3/3 1000 м
[Cu hum Ac lent]
+27.8 +12.3 38 +29 +29 жарко 1016.9 966.9 +34.0
21 22.08 СЗ 1 20 км ясно +22.8 +10.8 47 +25 +25 комфорт 1019.8 968.8
00 23.08 штиль 0 20 км 4/0
[Ac lent]
+19.4 +14.3 72 +21 +21 комфорт 1021.1 969.4
03 23.08 штиль 0 20 км ясно +17.0 +14.4 85 +17 +17 1021.7 969.6
06 23.08 штиль 0 20 км 3/3 1000 м
[Cu hum Ac lent]
+20.8 +18.3 86 +25 +28 комфорт 1020.8 969.6 +16.4
09 23.08 СВ 2 20 км 5/5 1000 м
[Cu Sc]
+29.0 +15.3 43 +32 +38 душно 1018.6 968.8
12 23.08 С 1 20 км 4/4 1000 м
[Cu Sc]
+33.0 +14.7 33 +35 +45 душно 1015.9 966.9
15 23.08 штиль 0 20 км 5/5 1000 м
[Cu Sc]
+33.8 +15.1 33 +36 +38 очень
душно
1014.4 965.6
18 23.08 штиль 0 20 км 6/6 1000 м
[Cu Sc]
+25.9 +15.8 54 +29 +29 душно 1016.4 966.3 +34.0
21 23.08 штиль 0 20 км 4/4 1000 м
[Sc]
+22.1 +17.4 75 +27 +27 душно 1017.4 966.5
00 24.08 ЮЗ 2 20 км 8/8 1000 м
[Sc]
+21.0 +17.1 78 +26 +26 душно 1017.5 966.5

 

Местоположение метеостанции Тетово (Македония): широта 42.00 долгота 20.97 высота над уровнем моря 462 м.

В архиве по умолчанию представлена погода в Тетово за последнюю неделю. Архивные данные за месяц целиком и за предыдущие месяцы, начиная с января 2011 года, Вы можете получить, выбрав интересующий диапазон дат из раскрывающегося списка и нажав кнопку "Ввод!".


*Определитесь, кто Вы:
робот инопланетянин человек

Внимание! Время в таблицах - всемирное. Для получения местного времени необходимо прибавить поправку, которая равна 1 ч.

Смотрите также архив погоды в соседних городах и на ближайших метеорологических станциях:

Погода в Пожаране (Македония) (19 км)
Погода в Скопье городе (Македония) (36 км)
Погода в Скопье (Македония) (55 км)
Погода на Лазарополе (Македония) (57 км)
Погода в Пешкопии (Албания) (57 км)
Погода в Гуришках (Македония) (74 км)
Погода в Прилепе (Македония) (90 км)
Погода в Тополчани (Македония) (96 км)
Погода в Охрид аэропорту (Македония) (99 км)
Погода во Вране (Черногория) (99 км)

Пояснения к столбцам:

Ветер - указаны скорость ветра в м/с - средняя за 10 мин, порывы в срок и между сроками (в фигурных скобках) и направление, откуда дует ветер: С - северный, СВ - северо-восточный, В - восточный, ЮВ - юго-восточный, Ю - южный, ЮЗ - юго-западный, З - западный, СЗ - северо-западный.
Видимость - горизонтальная дальность видимости в метрах или километрах. При видимости от 1 до 10 км при отсутствии осадков обычно наблюдается дымка, при ухудшении видимости до 1 км и менее - туман. В сухую погоду видимость может ухудшаться дымом, пылью или мглою.
Явления - указаны атмосферные явления, наблюдавшиеся в срок или в последний час перед сроком; фигурными скобками обозначены явления, наблюдавшиеся между сроками (за 1-3 часа до срока); квадратными скобками обозначены град или гололедные отложения с указанием их диаметра в мм.
Облачность - указаны через наклонную черту общая и нижняя облачность в баллах и высота нижней границы облаков в метрах; квадратными скобками обозначены формы облаков: Ci - перистые, Cs - перисто-слоистые, Cc - перисто-кучевые, Ac - высококучевые, As - высокослоистые, Sc - слоисто-кучевые, Ns - слоисто-дождевые, Cu - кучевые, Cb - кучево-дождевые. Подробнее классификацию облаков см. в Атласе облаков (PDF).
T - Температура воздуха - температура, измеренная на высоте 2 м над землей.
Td - Температура точки росы - температура, при понижении до которой содержащийся в воздухе водяной пар достигнет насыщения.
f - Относительная влажность воздуха - влажноcть воздуха, измеренная на высоте 2 м над землей.
Te - Эффективная температура - температура, которую ощущает одетый по сезону человек в тени. Характеристика душности погоды. При расчете учитывается влияние влажности воздуха и скорости ветра на теплоощущения человека.
Tes - Эффективная температура на солнце - температура, которую ощущает человек, с поправкой на солнечный нагрев. Характеристика знойности погоды. Зависит от высоты солнца над горизонтом, облачности и скорости ветра. Ночью, в пасмурную погоду, а также при ветре 12 м/с и более поправка равна нулю.
P - Атмосферное давление - приведенное к уровню моря атмосферное давление.
Po - Атмосферное давление - измеренное на уровне метеостанции атмосферное давление.
Tmin - Минимальная температура - минимум температуры воздуха на высоте 2 м над землей.
Tmax - Максимальная температура - максимум температуры воздуха на высоте 2 м над землей.
R - Количество осадков - Количество выпавших осадков за период времени, мм. При наведении курсора мыши на число - период времени, за который выпало указанное количество осадков.
R24 - Количество осадков - Количество выпавших осадков за 24 часа, мм.
S - Снежный покров - Высота снежного покрова, см. При наведении курсора мыши на число - состояние снежного покрова и степень покрытия местности в баллах.